Weather History for Woodward, OK

Change the Weather History Date:

Thursday, November 15, 2012

  Actual Average (KGAG) Record (KGAG)
Temperature  
Mean Temperature 52 °F -  
Max Temperature 62 °F 58 °F 83 °F (1952)
Min Temperature 41 °F 33 °F 16 °F (1955)
Degree Days  
Heating Degree Days 14    
Growing Degree Days 2 (Base 50)    
Moisture  
Dew Point 29 °F    
Average Humidity 47    
Maximum Humidity 76    
Minimum Humidity 27    
Precipitation  
Precipitation 0.00 in - - ()
Sea Level Pressure  
Sea Level Pressure 30.23 in    
Wind  
Wind Speed 11 mph (SE)    
Max Wind Speed 16 mph    
Max Gust Speed 23 mph    
Visibility 10 miles    
Events      
Averages and records for this station are not official NWS values.
T = Trace of Precipitation, MM = Missing Value Source: NWS Daily Summary

Daily Weather History Graph

Daily Weather History Graph

Search for Another Location

Airport:

Trip Planner

Search our weather history database for the weather conditions in past years. The results will help you decide how hot, cold, wet, or windy it might be!

Date:

Astronomy

Nov. 15, 2012 Rise Set
Actual Time 7:16 AM CST 5:29 PM CST
Civil Twilight 6:48 AM CST 5:56 PM CST
Nautical Twilight 6:17 AM CST 6:27 PM CST
Astronomical Twilight 5:46 AM CST 6:58 PM CST
Moon 9:11 AM CST (11/15) 7:24 PM CST (11/15)
Length of Visible Light 11h 08m
Length of Day
10h 13m
Waxing Crescent, 5% of the Moon is Illuminated
Nov 15
Waxing Crescent
Nov 20
First Quarter
Nov 28
Full
Dec 6
Last Quarter
Dec 13
New

Hourly Weather History & Observations

Time (CST) Temp. Windchill Dew Point Humidity Pressure Visibility Wind Dir Wind Speed Gust Speed Precip Events Conditions
12:15 AM 50.0 °F - 21.2 °F 32% 30.19 in 10.0 mi SSW 15.0 mph 21.9 mph N/A   Clear
12:35 AM 50.0 °F - 21.2 °F 32% 30.19 in 10.0 mi SSW 16.1 mph 23.0 mph N/A   Clear
12:55 AM 48.2 °F - 23.0 °F 37% 30.18 in 10.0 mi SSW 12.7 mph 18.4 mph N/A   Clear
1:15 AM 46.4 °F 39.8 °F 23.0 °F 40% 30.17 in 10.0 mi SSW 16.1 mph 19.6 mph N/A   Clear
1:35 AM 46.4 °F 40.1 °F 23.0 °F 40% 30.16 in 10.0 mi SSW 15.0 mph - N/A   Clear
1:55 AM 46.4 °F 39.8 °F 23.0 °F 40% 30.16 in 10.0 mi SSW 16.1 mph - N/A   Clear
2:15 AM 46.4 °F 40.4 °F 23.0 °F 40% 30.16 in 10.0 mi SSW 13.8 mph - N/A   Clear
2:35 AM 44.6 °F 38.8 °F 23.0 °F 43% 30.16 in 10.0 mi SSW 11.5 mph - N/A   Clear
2:55 AM 46.4 °F 40.1 °F 23.0 °F 40% 30.16 in 10.0 mi South 15.0 mph 19.6 mph N/A   Clear
3:15 AM 46.4 °F 40.1 °F 23.0 °F 40% 30.16 in 10.0 mi South 15.0 mph 20.7 mph N/A   Clear
3:35 AM 46.4 °F 40.7 °F 23.0 °F 40% 30.16 in 10.0 mi South 12.7 mph 18.4 mph N/A   Clear
3:55 AM 46.4 °F 40.7 °F 23.0 °F 40% 30.15 in 10.0 mi South 12.7 mph - N/A   Clear
4:15 AM 48.2 °F - 24.8 °F 40% 30.15 in 10.0 mi South 13.8 mph 18.4 mph N/A   Clear
4:35 AM 46.4 °F 40.1 °F 24.8 °F 43% 30.15 in 10.0 mi South 15.0 mph 19.6 mph N/A   Clear
4:55 AM 46.4 °F 40.1 °F 26.6 °F 46% 30.14 in 10.0 mi South 15.0 mph 21.9 mph N/A   Clear
5:15 AM 46.4 °F 39.8 °F 26.6 °F 46% 30.14 in 10.0 mi South 16.1 mph - N/A   Clear
5:35 AM 44.6 °F 37.4 °F 26.6 °F 49% 30.14 in 10.0 mi South 16.1 mph 23.0 mph N/A   Clear
5:55 AM 44.6 °F 37.4 °F 26.6 °F 49% 30.14 in 10.0 mi South 16.1 mph 20.7 mph N/A   Clear
6:15 AM 44.6 °F 37.4 °F 26.6 °F 49% 30.14 in 10.0 mi South 16.1 mph 20.7 mph N/A   Clear
6:35 AM 44.6 °F 38.1 °F 28.4 °F 53% 30.15 in 10.0 mi South 13.8 mph - N/A   Clear
6:55 AM 42.8 °F 38.6 °F 28.4 °F 57% 30.15 in 10.0 mi South 6.9 mph - N/A   Clear
7:15 AM 42.8 °F 38.0 °F 28.4 °F 57% 30.17 in 10.0 mi SSW 8.1 mph - N/A   Clear
7:35 AM 41.0 °F 35.2 °F 28.4 °F 61% 30.17 in 10.0 mi South 9.2 mph - N/A   Clear
7:55 AM 42.8 °F 38.0 °F 30.2 °F 61% 30.19 in 10.0 mi South 8.1 mph - N/A   Clear
8:15 AM 44.6 °F 39.7 °F 30.2 °F 57% 30.19 in 10.0 mi South 9.2 mph - N/A   Clear
8:35 AM 46.4 °F 41.5 °F 30.2 °F 53% 30.19 in 10.0 mi SSW 10.4 mph - N/A   Clear
8:55 AM 48.2 °F - 30.2 °F 50% 30.19 in 10.0 mi South 12.7 mph - N/A   Clear
9:15 AM 50.0 °F - 30.2 °F 47% 30.21 in 10.0 mi SSW 11.5 mph 16.1 mph N/A   Clear
9:35 AM 51.8 °F - 30.2 °F 44% 30.22 in 10.0 mi SW 9.2 mph - N/A   Clear
9:55 AM 51.8 °F - 30.2 °F 44% 30.21 in 10.0 mi SSW 9.2 mph - N/A   Clear
10:15 AM 51.8 °F - 28.4 °F 41% 30.23 in 10.0 mi WSW 8.1 mph - N/A   Clear
10:35 AM 51.8 °F - 28.4 °F 41% 30.24 in 10.0 mi WSW 5.8 mph - N/A   Clear
10:55 AM 51.8 °F - 28.4 °F 41% 30.23 in 10.0 mi SW 3.5 mph - N/A   Clear
11:15 AM 53.6 °F - 28.4 °F 38% 30.24 in 10.0 mi East 3.5 mph - N/A   Clear
11:35 AM 53.6 °F - 28.4 °F 38% 30.24 in 10.0 mi Calm Calm - N/A   Clear
11:55 AM 55.4 °F - 26.6 °F 33% 30.23 in 10.0 mi Calm Calm - N/A   Clear
12:15 PM 55.4 °F - 26.6 °F 33% 30.23 in 10.0 mi Calm Calm - N/A   Clear
12:35 PM 57.2 °F - 26.6 °F 31% 30.22 in 10.0 mi South 4.6 mph - N/A   Clear
12:55 PM 57.2 °F - 26.6 °F 31% 30.22 in 10.0 mi South 4.6 mph - N/A   Clear
1:15 PM 59.0 °F - 26.6 °F 29% 30.21 in 10.0 mi Calm Calm - N/A   Clear
1:35 PM 60.8 °F - 26.6 °F 27% 30.21 in 10.0 mi East 4.6 mph - N/A   Clear
1:55 PM 60.8 °F - 26.6 °F 27% 30.21 in 10.0 mi Calm Calm - N/A   Clear
2:15 PM 60.8 °F - 28.4 °F 29% 30.21 in 10.0 mi NNE 4.6 mph - N/A   Clear
2:35 PM 60.8 °F - 28.4 °F 29% 30.21 in 10.0 mi NE 4.6 mph - N/A   Clear
2:55 PM 60.8 °F - 28.4 °F 29% 30.21 in 10.0 mi Calm Calm - N/A   Clear
3:15 PM 60.8 °F - 28.4 °F 29% 30.21 in 10.0 mi NNE 5.8 mph - N/A   Clear
3:35 PM 62.6 °F - 28.4 °F 27% 30.23 in 10.0 mi East 4.6 mph - N/A   Clear
3:55 PM 60.8 °F - 28.4 °F 29% 30.23 in 10.0 mi Calm Calm - N/A   Clear
4:15 PM 60.8 °F - 28.4 °F 29% 30.24 in 10.0 mi NE 6.9 mph - N/A   Clear
4:55 PM 59.0 °F - 30.2 °F 34% 30.26 in 10.0 mi NE 5.8 mph - N/A   Clear
5:15 PM 55.4 °F - 30.2 °F 38% 30.26 in 10.0 mi NE 5.8 mph - N/A   Clear
5:35 PM 51.8 °F - 32.0 °F 47% 30.27 in 10.0 mi NNE 6.9 mph - N/A   Clear
5:55 PM 50.0 °F - 32.0 °F 50% 30.28 in 10.0 mi NNE 9.2 mph - N/A   Clear
6:15 PM 50.0 °F - 32.0 °F 50% 30.29 in 10.0 mi NE 9.2 mph - N/A   Clear
6:35 PM 48.2 °F - 33.8 °F 58% 30.30 in 10.0 mi NNE 8.1 mph - N/A   Clear
6:55 PM 48.2 °F - 33.8 °F 58% 30.32 in 10.0 mi NE 8.1 mph - N/A   Clear
7:35 PM 46.4 °F 42.9 °F 33.8 °F 62% 30.32 in 10.0 mi NE 6.9 mph - N/A   Clear
7:55 PM 46.4 °F 43.5 °F 33.8 °F 62% 30.33 in 10.0 mi ENE 5.8 mph - N/A   Clear
8:15 PM 46.4 °F 43.5 °F 33.8 °F 62% 30.33 in 10.0 mi NE 5.8 mph - N/A   Clear
8:35 PM 44.6 °F 42.2 °F 33.8 °F 66% 30.34 in 10.0 mi ENE 4.6 mph - N/A   Clear
8:55 PM 46.4 °F 44.3 °F 33.8 °F 62% 30.35 in 10.0 mi ENE 4.6 mph - N/A   Clear
9:15 PM 46.4 °F 45.2 °F 35.6 °F 66% 30.35 in 10.0 mi ENE 3.5 mph - N/A   Clear
9:35 PM 46.4 °F 45.2 °F 35.6 °F 66% 30.35 in 10.0 mi NE 3.5 mph - N/A   Clear
9:55 PM 42.8 °F 41.1 °F 33.8 °F 70% 30.36 in 10.0 mi NNE 3.5 mph - N/A   Clear
10:15 PM 41.0 °F 38.0 °F 33.8 °F 76% 30.37 in 10.0 mi North 4.6 mph - N/A   Clear
10:35 PM 42.8 °F 40.1 °F 33.8 °F 70% 30.37 in 10.0 mi NNE 4.6 mph - N/A   Clear
10:55 PM 42.8 °F 39.3 °F 33.8 °F 70% 30.37 in 10.0 mi ENE 5.8 mph - N/A   Clear
11:15 PM 42.8 °F 40.1 °F 33.8 °F 70% 30.38 in 10.0 mi ENE 4.6 mph - N/A   Clear
11:35 PM 42.8 °F 39.3 °F 33.8 °F 70% 30.38 in 10.0 mi ENE 5.8 mph - N/A   Clear
11:55 PM 41.0 °F 39.0 °F 33.8 °F 76% 30.38 in 10.0 mi ENE 3.5 mph - N/A   Clear